Regional Weather Roundup
Issued by NWS

Home | Current Version | Previous Version | Text Only | Print | Product List | Glossary On
Versions: 1 2 3 4 5 6 7 8 9 10 11 12 13 14 15 16 17 18 19 20 21 22 23 24 25 26 27 28 29 30 31 32 33 34 35 36 37 38 39 40 41 42 43 44 45 46 47 48 49 50
000
ASUS42 KFFC 291203
RWRGA
WEATHER ROUNDUP FOR GEORGIA
NATIONAL WEATHER SERVICE PEACHTREE CITY GA
800 AM EDT TUE JUL 29 2014

NOTE: "FAIR" INDICATES FEW OR NO CLOUDS BELOW 12,000 FEET WITH NO
SIGNIFICANT WEATHER AND/OR OBSTRUCTIONS TO VISIBILITY.

* = USE WITH CAUTION. THE STATIONS MARKED WITH AN ASTERISK MAY NOT
REPORT WEATHER SUCH AS PRECIPITATION, FOG, OR THUNDER AND ARE NOT
QUALITY CONTROLLED BY NWS.

THE REMARK "TC" DENOTES TEMPERATURE READING IN DEGREES CELSIUS.

GAZ001>058-291300-
NORTH GEORGIA

CITY           SKY/WX    TMP DP  RH WIND       PRES   REMARKS
ATLANTA        SUNNY     68  61  78 NW7       29.99S
6HR MIN TEMP:  66; 6HR MAX TEMP:  72;

ATHENS         SUNNY     68  61  78 N3        29.98R
6HR MIN TEMP:  65; 6HR MAX TEMP:  71;

CHAMBLEE       SUNNY     68  60  75 N5        30.00R
6HR MIN TEMP:  64; 6HR MAX TEMP:  71;

PEACHTREE CITY SUNNY     69  61  75 NW7       30.00S
6HR MIN TEMP:  66; 6HR MAX TEMP:  71;

ROME           SUNNY     66  62  87 MISG      30.00S
6HR MIN TEMP:  61; 6HR MAX TEMP:  67;

WEST ATLANTA   SUNNY     67  61  81 NW3       30.00R
6HR MIN TEMP:  65; 6HR MAX TEMP:  70;

GAINESVILLE    SUNNY     67  59  75 NW7       30.02R
6HR MIN TEMP:  64; 6HR MAX TEMP:  70;

CARTERSVILLE   SUNNY     65  61  87 CALM      30.00S
6HR MIN TEMP:  59; 6HR MAX TEMP:  67;



CITY           SKY/WX    TMP DP  RH WIND       PRES   REMARKS
DALTON*        SUNNY     63  63 100 CALM      30.01R
KENNESAW*      SUNNY     64  61  88 NW5       30.02R
$$

GAZ059>098-102>109-291300-
CENTRAL GEORGIA

CITY           SKY/WX    TMP DP  RH WIND       PRES   REMARKS
AUGUSTA-BUSH   SUNNY     71  62  73 N5        29.94R
6HR MIN TEMP:  63; 6HR MAX TEMP:  71;

AUGUSTA-DANIEL SUNNY     73  59  61 N8        29.96R
6HR MIN TEMP:  71; 6HR MAX TEMP:  77;

COLUMBUS       SUNNY     70  62  76 CALM      29.98R
6HR MIN TEMP:  69; 6HR MAX TEMP:  75;

MACON          SUNNY     67  65  93 W3        29.96R
6HR MIN TEMP:  63; 6HR MAX TEMP:  69;

ROBINS AFB     SUNNY     68  64  87 NW6       29.96R


CITY           SKY/WX    TMP DP  RH WIND       PRES   REMARKS
LAGRANGE*      SUNNY     72  66  82 N3        30.00R
SYLVANIA*      SUNNY     71  67  88 N3        29.93S
MILLEDGEVILLE* SUNNY     59  59 100 CALM      29.96S
$$

GAZ099>101-110>166-291300-
SOUTH GEORGIA

CITY           SKY/WX    TMP DP  RH WIND       PRES   REMARKS
SAVANNAH       MOSUNNY   75  64  68 N5        29.91R
6HR MIN TEMP:  73; 6HR MAX TEMP:  78;

VALDOSTA       SUNNY     78  69  73 CALM      29.94R
6HR MIN TEMP:  74; 6HR MAX TEMP:  78;

ST SIMONS      SUNNY     77  68  73 NW9       29.89R
6HR MIN TEMP:  76; 6HR MAX TEMP:  82;

FT STEWART     MOSUNNY   74  66  75 N6        29.90S
ALBANY         SUNNY     71  66  84 CALM      29.98R
HUNTER AFB     SUNNY     76  65  69 NW5       29.89R
BRUNSWICK      SUNNY     77  68  73 NW5       29.90S


CITY           SKY/WX    TMP DP  RH WIND       PRES   REMARKS
BAINBRIDGE*    MOSUNNY   75  70  83 N5        29.96R
MOULTRIE*      SUNNY     72  70  94 N3        29.96R
VIDALIA*         N/A     72  64  78 N6        29.94R
WAYCROSS*      SUNNY     78  74  86 NW6       29.92R
DOUGLAS*       SUNNY     75  64  69 N6        29.95R
$$


USA.gov is the U.S. government's official web portal to all federal, state and local government web resources and services.